Date String (YYYY-MM-DD hh:mm:ss) UTC,Instrument flags,Ambient pressure (hPa),Sample flow (lpm),Bypass flow (lpm),Sample temperature (°C),Ambient temperature (°C),ASC tube jacket temperature (°C),LED temperature (°C),Box temperature (°C),Sample RH (%),Span deviation,Mass concentration (μg/m³),Mass concentration (μg/m³),Mass concentration (μg/m³)
DateTimeUTC,F1_M11,P_M11,Q1_M11,Q2_M11,T1_M11,T2_M11,T3_M11,T4_M11,T5_M11,U1_M11,ZSPAN_M11,X2_M11,X0_M11,X1_M11
2022-01-08 05:00:00,,0812.7,5.00,0.00,26.2,25.4,00.0,35.4,27.9,08.9,0000.0,0000.28,0000.38,0000.24
2022-01-08 05:01:00,,0812.6,4.99,0.00,26.2,25.3,00.0,35.3,27.9,08.6,0000.0,0000.27,0000.38,0000.24
2022-01-08 05:02:00,,0812.6,4.99,0.00,26.2,25.3,00.0,35.3,27.9,08.6,0000.0,0000.27,0000.36,0000.24
2022-01-08 05:03:00,,0812.6,5.00,0.00,26.2,25.3,00.0,35.3,27.9,08.6,0000.0,0000.26,0000.35,0000.24
2022-01-08 05:04:00,,0812.7,4.98,0.00,26.2,25.3,00.0,35.3,27.9,08.9,0000.0,0000.28,0000.42,0000.24
2022-01-08 05:05:00,,0812.7,5.01,0.00,26.2,25.3,00.0,35.3,27.9,09.2,0000.0,0000.28,0000.42,0000.24
2022-01-08 05:06:00,,0812.7,5.02,0.00,26.2,25.3,00.0,35.3,27.9,09.4,0000.0,0000.28,0000.42,0000.23
2022-01-08 05:07:00,,0812.7,4.99,0.00,26.2,25.3,00.0,35.3,27.9,09.9,0000.0,0000.27,0000.37,0000.23
2022-01-08 05:08:00,,0812.8,4.99,0.00,26.2,25.3,00.0,35.3,27.9,10.0,0000.0,0000.28,0000.39,0000.24
2022-01-08 05:09:00,,0812.8,5.02,0.00,26.2,25.3,00.0,35.3,27.9,09.7,0000.0,0000.30,0000.42,0000.25
2022-01-08 05:10:00,,0812.8,4.99,0.00,26.2,25.3,00.0,35.3,27.9,09.5,0000.0,0000.30,0000.43,0000.26
2022-01-08 05:11:00,,0812.8,5.00,0.00,26.2,25.2,00.0,35.3,27.9,09.4,0000.0,0000.30,0000.43,0000.26
2022-01-08 05:12:00,,0812.8,5.00,0.00,26.2,25.2,00.0,35.3,27.9,09.6,0000.0,0000.31,0000.45,0000.27
2022-01-08 05:13:00,,0812.8,5.00,0.00,26.2,25.2,00.0,35.3,27.8,09.5,0000.0,0000.33,0000.86,0000.28
2022-01-08 05:14:00,,0812.8,5.00,0.00,26.2,25.2,00.0,35.3,27.8,09.4,0000.0,0000.32,0000.84,0000.28
2022-01-08 05:15:00,,0812.8,5.01,0.00,26.2,25.2,00.0,35.3,27.8,09.0,0000.0,0000.31,0000.79,0000.28
2022-01-08 05:16:00,,0812.8,4.99,0.00,26.2,25.2,00.0,35.3,27.8,09.0,0000.0,0000.32,0000.81,0000.29
2022-01-08 05:17:00,,0812.9,5.00,0.00,26.2,25.2,00.0,35.3,27.9,09.2,0000.0,0000.33,0000.84,0000.29
2022-01-08 05:18:00,,0812.8,5.00,0.00,26.1,25.2,00.0,35.3,27.8,09.4,0000.0,0000.34,0000.87,0000.29
2022-01-08 05:19:00,,0812.8,5.00,0.00,26.1,25.2,00.0,35.3,27.8,09.2,0000.0,0000.34,0000.87,0000.28
2022-01-08 05:20:00,,0812.8,5.01,0.00,26.1,25.2,00.0,35.2,27.7,09.4,0000.0,0000.33,0000.82,0000.27
2022-01-08 05:21:00,,0812.9,4.99,0.00,26.1,25.2,00.0,35.2,27.7,09.3,0000.0,0000.33,0000.83,0000.27
2022-01-08 05:22:00,,0812.9,5.01,0.00,26.1,25.2,00.0,35.2,27.7,09.0,0000.0,0000.33,0000.84,0000.27
2022-01-08 05:23:00,,0812.9,4.98,0.00,26.1,25.1,00.0,35.2,27.7,09.2,0000.0,0000.32,0000.83,0000.26
2022-01-08 05:24:00,,0812.9,5.00,0.00,26.0,25.1,00.0,35.2,27.6,09.4,0000.0,0000.31,0000.45,0000.25
2022-01-08 05:25:00,,0812.9,4.99,0.00,26.0,25.1,00.0,35.2,27.7,09.6,0000.0,0000.31,0000.42,0000.25
2022-01-08 05:26:00,,0812.9,5.00,0.00,26.0,25.1,00.0,35.2,27.7,09.7,0000.0,0000.30,0000.41,0000.24
2022-01-08 05:27:00,,0812.9,5.00,0.00,26.0,25.1,00.0,35.2,27.6,09.8,0000.0,0000.29,0000.38,0000.24
2022-01-08 05:28:00,,0812.9,5.01,0.00,26.0,25.1,00.0,35.2,27.6,09.6,0000.0,0000.29,0000.40,0000.24
2022-01-08 05:29:00,,0812.9,5.01,0.00,26.0,25.1,00.0,35.2,27.6,09.5,0000.0,0000.29,0000.40,0000.24
2022-01-08 05:30:00,,0813.2,5.00,0.00,26.0,25.0,00.0,35.1,27.6,09.3,0000.0,0000.28,0000.38,0000.24
2022-01-08 05:31:00,,0813.0,5.00,0.00,26.0,25.0,00.0,35.1,27.6,09.2,0000.0,0000.29,0000.41,0000.24
2022-01-08 05:32:00,,0812.9,5.00,0.00,26.0,25.0,00.0,35.1,27.6,09.3,0000.0,0000.28,0000.40,0000.23
2022-01-08 05:33:00,,0813.0,4.99,0.00,26.0,25.0,00.0,35.1,27.6,09.1,0000.0,0000.29,0000.42,0000.24
2022-01-08 05:34:00,,0813.1,5.01,0.00,25.9,25.0,00.0,35.1,27.6,09.4,0000.0,0000.30,0000.54,0000.24
2022-01-08 05:35:00,,0813.0,4.99,0.00,25.9,24.9,00.0,35.1,27.5,09.4,0000.0,0000.31,0000.57,0000.25
2022-01-08 05:36:00,,0813.1,5.01,0.00,25.8,24.8,00.0,35.1,27.5,09.5,0000.0,0000.31,0000.58,0000.25
2022-01-08 05:37:00,,0813.3,4.99,0.00,25.8,24.8,00.0,35.0,27.5,09.7,0000.0,0000.32,0000.58,0000.25
2022-01-08 05:38:00,,0813.2,5.01,0.00,25.7,24.7,00.0,35.0,27.4,09.7,0000.0,0000.33,0000.59,0000.26
2022-01-08 05:39:00,,0813.2,5.00,0.00,25.7,24.6,00.0,35.0,27.4,09.8,0000.0,0000.31,0000.55,0000.26
2022-01-08 05:40:00,,0813.1,4.99,0.00,25.7,24.6,00.0,35.0,27.3,09.7,0000.0,0000.29,0000.52,0000.26
2022-01-08 05:41:00,,0813.0,5.00,0.00,25.6,24.6,00.0,34.9,27.3,09.5,0000.0,0000.29,0000.52,0000.26
2022-01-08 05:42:00,,0813.0,5.01,0.00,25.6,24.5,00.0,34.9,27.2,09.6,0000.0,0000.29,0000.51,0000.26
2022-01-08 05:43:00,,0813.2,5.00,0.00,25.5,24.5,00.0,34.9,27.2,09.8,0000.0,0000.29,0000.50,0000.26
2022-01-08 05:44:00,,0812.9,5.01,0.00,25.5,24.5,00.0,34.8,27.2,09.9,0000.0,0000.28,0000.52,0000.26
2022-01-08 05:45:00,,0813.0,5.01,0.00,25.5,24.5,00.0,34.8,27.2,09.8,0000.0,0000.29,0000.61,0000.26
2022-01-08 05:46:00,,0813.1,5.00,0.00,25.5,24.4,00.0,34.8,27.1,09.6,0000.0,0000.30,0000.66,0000.26
2022-01-08 05:47:00,,0813.0,5.00,0.00,25.4,24.4,00.0,34.8,27.1,09.8,0000.0,0000.29,0000.66,0000.26
2022-01-08 05:48:00,,0813.0,4.99,0.00,25.4,24.4,00.0,34.7,27.0,09.9,0000.0,0000.29,0000.66,0000.25
2022-01-08 05:49:00,,0813.0,5.01,0.00,25.4,24.4,00.0,34.7,27.0,10.2,0000.0,0000.30,0000.67,0000.25
2022-01-08 05:50:00,,0812.9,5.00,0.00,25.3,24.4,00.0,34.7,27.0,10.2,0000.0,0000.31,0000.68,0000.25
2022-01-08 05:51:00,,0813.0,4.99,0.00,25.3,24.4,00.0,34.6,27.0,10.2,0000.0,0000.31,0000.68,0000.25
2022-01-08 05:52:00,,0813.1,5.00,0.00,25.3,24.3,00.0,34.6,26.9,10.2,0000.0,0000.31,0000.67,0000.25
2022-01-08 05:53:00,,0813.1,5.01,0.00,25.2,24.3,00.0,34.6,26.9,10.4,0000.0,0000.30,0000.66,0000.25
2022-01-08 05:54:00,,0813.1,5.01,0.00,25.2,24.3,00.0,34.5,26.9,10.4,0000.0,0000.31,0000.67,0000.25
2022-01-08 05:55:00,,0813.2,5.00,0.00,25.2,24.2,00.0,34.5,26.8,10.3,0000.0,0000.30,0000.62,0000.25
2022-01-08 05:56:00,,0813.0,5.01,0.00,25.1,24.2,00.0,34.5,26.8,10.3,0000.0,0000.29,0000.42,0000.25
2022-01-08 05:57:00,,0812.8,5.00,0.00,25.1,24.1,00.0,34.4,26.8,10.3,0000.0,0000.28,0000.33,0000.25
2022-01-08 05:58:00,,0812.9,5.00,0.00,25.1,24.1,00.0,34.4,26.7,10.3,0000.0,0000.28,0000.34,0000.25
2022-01-08 05:59:00,,0812.8,4.99,0.00,25.0,24.0,00.0,34.4,26.7,10.1,0000.0,0000.29,0000.37,0000.25
